STARLINK-11547, 62587

Orbit data source: Space-Track

STARLINK-11547, 62587 is a payload satellite owned by SpaceX/Seattle (US) in LEO that was launched on Mon, 13 Jan 2025 UTC via an FALCON 9 launch vehicle from the Air Force Eastern Test Range (AFETR). Payload-class satellites include a variety of spacecraft equipped with specific instruments for various scientific and technological missions. These include communications satellites like Starlink; space stations such as the ISS; scientific satellites like the Hubble; Earth observation satellites from companies like Planet Labs, Umbra, and HawkEye 360; GPS; miniature CubeSats for education and research; and military/defense satellites.

Loading next visibility...
Identifier
62587, 2025-008A
Orbit
LEO
Last TLE update
23 hours ago
Origin
Manufacturer
SpaceX/Seattle
Mission
Operational Commercial Communications
Bus & Motor
STARLINK V2M, Unknown motor
Mass
730 kg wet, ~700 kg dry
Launch date (UTC)
2025-01-13 (6 months ago)
Launch vehicle
FALCON 9
Launch site
Air Force Eastern Test Range (AFETR)
Object type
Payload
Rocket body
Debris
Shape & HBR
Box + 2 Pan, 29 m
Radar Cross Section
36.964 m², Large (>1 m²)

Expand to show TLE details & history

TLE from 23 hours ago
0 STARLINK-11547
1 62587U 25008A   25181.46635130  .00156835  00000-0  12005-2 0  9996
2 62587  43.0010 206.7019 0002093 277.6925  82.3704 15.70885431 26447
Epoch: 2025-06-30T11:11Z
TLE epoch observation values (Epoch: 2025-06-30T11:11:32.752Z)
Latitude
-0.00008°
Longitude
120.0396°
Altitude
355.95 km
Speed
7.698 km/s
True Right ascension
13h 46m 48s
True Declination
0° 00' 00"
Sunlit
Object was in daylight at epoch
Visualization orbit readout
Latitude
-41.80076°
Longitude
41.92483°
Altitude
366.909 km
Speed
7.69 km/s
Apparent Right ascension
08h 58m 35s
Apparent Declination
-40° 51' 48"
Sunlit
Object is in daylight
Visualization observer readout
Local Sidereal Time
21:23:31
Azimuth
103.295° ESE
Elevation
-85.162°
Doppler factor
1
Orbital elements
Apogee altitude
359.757 km
Perigee altitude
356.937 km
Semi-major axis
6,736.484 km
Eccentricity
0.00021
Inclination
43.001°
RAAN
206.7019°
Arg. of periapsis
277.6925°
True anomaly
Unknown
Mean anomaly
82.3704°
Eccentric anomaly
Unknown
Mean motion
3.92548 °/min
Orbital period
91.71 mins
BSTAR
0.0012005
Loading maneuver chart data...
Loading SW <> Apogee altitude chart data...
Loading historical data...
Loading historical data...
Loading historical data...
Loading historical data...
Loading historical data...
Loading historical data...
Loading historical data...

STARLINK-11547 Visibility forecast

Observer location: undefined°, undefined°

Span
Click to sort rows by Start time (UTC) header in descending order
Start Az.
Max El. time (UTC)
Max El. Az.
Max El.
End time (UTC)
End Az.
5 mins2025-07-01 10:33:10.850Z271.103° WNW2025-07-01 10:35:10.850Z227.366° WSW25.825°2025-07-01 10:38:10.850Z145.536° SSE
4 mins2025-07-02 07:49:10.850Z304.473° NW2025-07-02 07:50:10.850Z339.518° N33.983°2025-07-02 07:53:10.850Z79.733° E
4 mins2025-07-02 09:25:10.850Z277.936° WNW2025-07-02 09:27:10.850Z151.442° SSE38.305°2025-07-02 09:29:10.850Z121.542° SE
|